Weather in Kobuleti

Georgia     41°49′14″N   41°46′32″E
temp.,
°C
wind,
m/s
gust,
m/s
humid.,
%
clouds,
%
prec.,
mm/h
press.,
hPa
HPBL,
m
6 may, thu
thu601:00+11e23700 0.0 101463
04:00+12ese226631 0.0 101250
07:00+12ese2267100 0.0 101143
10:00+18nnw11509 0.0 1011305
13:00+19wnw22495 0.0 1010435
16:00+20w22495 0.0 1010429
19:00+16sw237499 0.0 1011106
22:00+15sw3470100 0.0 101465
7 may, fri
fri701:00+13ssw5775100 0.0 1017200
04:00+13s3369100 0.0 101761
07:00+13s2270100 0.0 101820
10:00+16wsw24565 0.0 1019605
13:00+17wsw33543 0.0 1019600
16:00+17w33530 0.0 1019493
19:00+16wsw11620 0.0 101851
22:00+13ese22645 0.0 101926
8 may, sat
sat801:00+13ese22600 0.0 101828
04:00+13ese32593 0.0 101635
07:00+14se326227 0.0 101441
10:00+20wnw114499 0.0 1013335
13:00+22nnw1241100 0.0 1012463
16:00+22w1144100 0.0 1011319
19:00+21sse116247 0.0 101111
22:00+18ese325912 0.0 101130
9 may, sun
sun901:00+17se334626 0.0 101040
04:00+17ssw4651100 0.0 1011104
07:00+13ssw8119286 0.0 1016683
10:00+13s5694100 1.1 1019323
13:00+13sw4697100 4.5 1020360
16:00+12w71096100 17.8 1023842
19:00+10w5793100 11.4 1025609
22:00+9ssw5691100 20.4 1027677
10 may, mon
mon1001:00+8s4690100 5.5 1027561
04:00+9sw578595 8.8 1027751
07:00+9ssw4679100 3.8 1027688
10:00+10s56735 4.6 1027793
13:00+12wsw556273 0.4 10261084
16:00+13w34565 0.6 10251152
19:00+11w22634 0.0 1024591
22:00+8se21760 0.0 102487